Location: Del Amo
(33.8464°N, 118.2104°W)
Time: 18:26:34
(UTC+00:00)

Vanguard 1 Rocket - Pass Details

Date: 19 September 2024
Orbit: 650 x 4218 km, 34.3° (Epoch: 04 October)

Event Time Altitude Azimuth Distance (km) Brightness Sun altitude
Rises 10:03:39 0° 239° (WSW) 4,480 - -42.4°
Reaches altitude 10° 10:06:02 10° 236° (SW) 3,811 - -42.0°
Exits shadow 10:15:45 70° 176° (S) 2,520 9.2 -40.4°
Maximum altitude 10:16:38 71° 154° (SSE) 2,579 9.3 -40.3°
Drops below altitude 10° 10:37:34 10° 76° (ENE) 6,949 12.6 -36.7°
Sets 10:43:48 0° 75° (ENE) 8,270 13.2 -35.6°
